Location: Martz Observatory
(42.0083°N, 79.0667°W)
Time: 22:44:33
(UTC-05:00)

Meteor 1-23 Rocket - Visible Passes

Search period start: 13 February 2016 00:00
Search period end: 23 February 2016 00:00
Orbit: 840 x 885 km, 81.3° (Epoch: 13 February)

Date Brightness Start Highest point End Pass type
(mag) Time Alt. Az. Time Alt. Az. Time Alt. Az.
13 Feb 6.1 19:14:22 10° NNE 19:15:27 13° NE 19:15:27 13° NE visible
13 Feb 6.1 20:55:49 10° NNW 20:57:46 22° NNW 20:57:46 22° NNW visible
14 Feb 6.0 19:06:06 10° NNE 19:07:52 14° NE 19:07:52 14° NE visible
14 Feb 5.8 20:47:31 10° NNW 20:50:11 28° NNW 20:50:11 28° NNW visible
15 Feb 5.9 18:57:51 10° NNE 19:00:23 15° NE 19:00:23 15° NE visible
15 Feb 5.3 20:39:14 10° NNW 20:42:43 38° NNW 20:42:43 38° NNW visible
16 Feb 5.8 18:49:35 10° NNE 18:52:48 15° ENE 18:53:02 15° ENE visible
16 Feb 4.7 20:30:56 10° NNW 20:35:22 54° NNW 20:35:22 54° NNW visible
17 Feb 5.7 18:41:19 10° NNE 18:44:29 15° ENE 18:45:50 14° E visible
17 Feb 4.3 20:22:38 10° NNW 20:28:11 78° WNW 20:28:11 78° WNW visible
18 Feb 5.8 18:33:04 10° NNE 18:36:11 15° ENE 18:38:52 11° E visible
18 Feb 4.2 20:14:20 10° NNW 20:20:07 81° W 20:21:14 59° S visible
19 Feb 5.8 18:24:48 10° NNE 18:27:52 14° ENE 18:30:55 10° E visible
19 Feb 4.2 20:06:02 10° NNW 20:11:49 81° W 20:14:39 31° S visible
20 Feb 5.8 18:16:32 10° NNE 18:19:33 14° ENE 18:22:33 10° E visible
20 Feb 4.2 19:57:44 10° NNW 20:03:31 82° W 20:08:49 12° S visible
21 Feb 4.2 19:49:26 10° NNW 19:55:13 83° W 20:00:52 10° S visible
21 Feb 7.2 21:36:56 10° WNW 21:37:22 10° W 21:37:47 10° W visible
22 Feb 4.2 19:41:09 10° N 19:46:55 84° W 19:52:34 10° S visible
22 Feb 7.3 21:28:24 10° WNW 21:29:04 10° W 21:29:44 10° W visible
